[[{"header":{"parameterUnit":"m.s-1","parameterCategory":1,"la1":30.2991,"la2":30.254,"lo1":-89.0895,"lo2":-89.0444,"dy":0.0017,"dx":0.0017,"nx":28,"ny":28,"refTime":"2024-05-20T09:00:00:Z","depth":0,"parameterNumber":2,"parameterNumberName":"U-component_of_WINDS"},"data":[0,0,0,0,0,0,0,0,0,0,0,0,0,0,0,0,0,0,0,0,0,0,0,0,0,0,0,0,0,0,0,0,0,0,0,0,0,0,0,0,0,0,0,0,0,0,0,0,0,0,0,0,0,0,0,0,0,0,-1.3914,-1.3914,0,-1.3892,-1.3892,-1.3891,-1.3842,-1.3841,-1.384,-1.3839,-1.3818,-1.3818,-1.3818,0,0,0,0,0,0,0,0,0,0,0,0,0,-1.3915,-1.3915,-1.3914,-1.3914,-1.3913,-1.3892,-1.3892,-1.3891,-1.3842,-1.3841,-1.384,-1.3839,-1.3817,-1.3818,-1.3818,0,0,0,0,0,0,0,0,0,0,0,0,0,-1.3906,-1.3915,-1.3914,-1.3886,-1.3884,-1.3892,-1.3892,-1.3891,-1.3843,-1.3841,-1.384,-1.3838,-1.3817,-1.3818,-1.3818,-1.3852,0,0,-1.382,-1.382,0,0,0,0,0,0,0,0,-1.3907,-1.3906,-1.3891,-1.3888,-1.3885,-1.3868,-1.3884,-1.3878,-1.3843,-1.3858,-1.3839,-1.3838,-1.3836,-1.3835,-1.3834,-1.3851,-1.385,-1.382,-1.382,-1.3821,-1.3821,0,0,0,0,0,0,0,-1.3907,-1.3907,-1.3905,-1.3891,-1.3887,-1.3876,-1.3873,-1.3883,-1.3856,-1.3857,-1.3853,-1.3851,-1.3834,-1.3833,-1.3833,-1.385,-1.382,-1.3821,-1.3821,-1.3821,-1.3894,-1.3895,0,0,0,0,0,0,-1.3912,-1.3907,-1.3906,-1.3905,-1.3892,-1.3877,-1.3873,-1.3875,-1.3856,-1.3851,-1.3853,-1.3849,-1.3833,-1.3832,-1.3832,-1.387,-1.3821,-1.3821,-1.3821,-1.3892,-1.3894,-1.3896,0,0,0,0,0,0,-1.3912,-1.3912,-1.3907,-1.3905,-1.3903,-1.3878,-1.3881,-1.3876,-1.3875,-1.3852,-1.3847,-1.3857,-1.3832,-1.3831,-1.3847,-1.3869,-1.3821,-1.3822,-1.389,-1.3893,-1.3895,-1.3947,0,0,0,0,0,0,-1.3912,-1.3912,-1.3924,-1.3906,-1.3904,-1.3922,-1.3882,-1.3876,-1.3876,-1.3871,-1.3855,-1.3851,-1.3831,-1.3847,-1.3848,-1.3868,-1.3822,-1.3888,-1.3891,-1.3894,-1.3943,-1.395,-1.3957,0,0,0,0,0,-1.3912,-1.394,-1.3925,-1.3925,-1.3918,-1.3924,-1.3922,-1.3899,-1.3878,-1.389,-1.3876,-1.3851,-1.3866,-1.3849,-1.385,-1.3871,-1.3887,-1.3891,-1.3894,-1.394,-1.3949,-1.3957,0,0,0,0,0,0,-1.3962,-1.3937,-1.392,-1.3943,-1.3936,-1.3915,-1.393,-1.3909,-1.3908,-1.3903,-1.3874,-1.3871,-1.3891,-1.3883,-1.3864,-1.3903,-1.3873,-1.3877,-1.3907,-1.3916,-1.3923,-1.3924,-1.3823,0,0,0,0,0,-1.3975,-1.3981,-1.3959,-1.3981,-1.3978,-1.3955,-1.3956,-1.3939,-1.393,-1.3927,-1.3914,-1.3907,-1.391,-1.3912,-1.3914,-1.3942,-1.3938,-1.3957,-1.3964,-1.397,-1.3973,-1.3988,-1.3996,-1.3908,-1.3908,-1.3908,0,0,-1.4003,-1.399,-1.3996,-1.3991,-1.3983,-1.399,-1.3953,-1.3962,-1.3967,-1.3928,-1.3943,-1.3933,-1.3923,-1.3946,-1.3955,-1.3939,-1.3997,-1.3974,-1.3979,-1.3979,-1.3992,-1.4001,-1.4008,-1.391,-1.391,-1.3909,0,0,-1.4057,-1.4048,-1.4065,-1.4059,-1.4048,-1.4032,-1.4037,-1.402,-1.4012,-1.4026,-1.3997,-1.4003,-1.4009,-1.4004,-1.4002,-1.4055,-1.4033,-1.4057,-1.4093,-1.4108,-1.4115,-1.4121,-1.414,-1.4147,-1.4061,-1.4061,-1.4061,0,-1.4093,-1.4103,-1.4077,-1.4088,-1.4087,-1.4053,-1.407,-1.4065,-1.4056,-1.4056,-1.4039,-1.4046,-1.4037,-1.4057,-1.4071,-1.407,-1.4074,-1.4058,-1.4116,-1.4121,-1.4127,-1.4145,-1.4152,-1.4064,-1.4063,-1.4063,-1.4063,0,-1.4148,-1.4155,-1.417,-1.4162,-1.4162,-1.4177,-1.4154,-1.4157,-1.414,-1.4127,-1.4142,-1.413,-1.4129,-1.4133,-1.4116,-1.4151,-1.4142,-1.4121,-1.409,-1.4138,-1.4155,-1.4161,-1.4068,-1.4067,-1.4066,-1.4065,0,0,-1.4231,-1.4209,-1.4215,-1.4211,-1.4197,-1.4202,-1.4216,-1.4214,-1.4218,-1.4214,-1.4224,-1.423,-1.4211,-1.4209,-1.4191,-1.4204,-1.4247,-1.4181,-1.418,-1.4194,-1.4286,-1.4301,-1.431,-1.4233,-1.4234,-1.4235,-1.4286,0,-1.4282,-1.4302,-1.428,-1.4306,-1.4312,-1.4281,-1.4292,-1.4285,-1.4273,-1.4278,-1.4265,-1.4269,-1.4243,-1.4242,-1.4253,-1.424,-1.4265,-1.4236,-1.4243,-1.4243,-1.4245,-1.4318,-1.4335,-1.4383,-1.4293,-1.4294,-1.4295,0,-1.4343,-1.4341,-1.4367,-1.4352,-1.4354,-1.4365,-1.4362,-1.4367,-1.4359,-1.4349,-1.4348,-1.4327,-1.4339,-1.431,-1.4327,-1.4307,-1.4309,-1.4303,-1.4304,-1.4304,-1.4271,-1.4319,-1.4398,-1.4406,-1.4304,-1.4304,-1.4303,0,-1.4402,-1.4405,-1.4421,-1.4419,-1.4402,-1.441,-1.4404,-1.4394,-1.4395,-1.4393,-1.4394,-1.4394,-1.4393,-1.4394,-1.4374,-1.4355,-1.4394,-1.4363,-1.4386,-1.4387,-1.4395,-1.4395,-1.4476,-1.4397,-1.4397,-1.4397,-1.4397,0,-1.446,-1.4477,-1.4447,-1.4457,-1.4476,-1.4451,-1.447,-1.446,-1.4452,-1.446,-1.4433,-1.4441,-1.4414,-1.442,-1.4404,-1.4421,-1.4421,-1.4414,-1.4409,-1.4416,-1.4417,-1.4416,-1.4412,-1.4399,-1.4399,-1.4398,-1.4398,0,-1.4528,-1.4508,-1.4524,-1.4507,-1.4503,-1.4517,-1.4503,-1.4512,-1.4499,-1.4509,-1.451,-1.4489,-1.4494,-1.4475,-1.4476,-1.4466,-1.4491,-1.4481,-1.4493,-1.449,-1.4514,-1.4512,-1.4597,-1.4607,-1.4523,-1.4524,-1.4525,0,-1.4566,-1.4578,-1.4563,-1.4566,-1.4561,-1.4566,-1.4567,-1.4544,-1.4546,-1.4538,-1.4548,-1.4551,-1.4552,-1.4562,-1.4547,-1.4548,-1.4538,-1.4568,-1.4538,-1.4544,-1.4538,-1.4537,-1.4539,-1.4574,-1.4575,-1.4576,-1.4576,0,-1.4636,-1.4626,-1.4628,-1.4627,-1.4629,-1.4627,-1.4624,-1.4628,-1.4603,-1.4607,-1.4612,-1.4612,-1.4614,-1.4618,-1.4616,-1.461,-1.4589,-1.4586,-1.4591,-1.4598,-1.4604,-1.4601,-1.4509,-1.4584,-1.4583,-1.4583,-1.4582,-1.4582,-1.469,-1.4699,-1.469,-1.4694,-1.4689,-1.4686,-1.4694,-1.4682,-1.4685,-1.4685,-1.4671,-1.4679,-1.4671,-1.4667,-1.4663,-1.4669,-1.4655,-1.4663,-1.4665,-1.4667,-1.4671,-1.4604,-1.4668,-1.4668,-1.4668,-1.4668,-1.4668,0,-1.4758,-1.4751,-1.4754,-1.475,-1.4753,-1.4734,-1.4729,-1.4733,-1.474,-1.4735,-1.4736,-1.4742,-1.4746,-1.4732,-1.4733,-1.4741,-1.4731,-1.4742,-1.4741,-1.474,-1.4683,-1.4678,-1.475,-1.475,-1.475,-1.475,-1.4749,-1.4749,-1.4794,-1.4809,-1.4799,-1.4812,-1.4804,-1.4811,-1.481,-1.4808,-1.4804,-1.4812,-1.4814,-1.4805,-1.4797,-1.4797,-1.48,-1.4796,-1.4798,-1.4811,-1.4804,-1.4752,-1.4744,-1.4736,-1.4731,-1.4812,-1.4812,-1.486,-1.486,-1.4861]},{"header":{"parameterUnit":"m.s-1","parameterCategory":1,"la1":30.2991,"la2":30.254,"lo1":-89.0895,"lo2":-89.0444,"dy":0.0017,"dx":0.0017,"nx":28,"ny":28,"refTime":"2024-05-20T09:00:00:Z","depth":0,"parameterNumber":3,"parameterNumberName":"V-component_of_WINDS"},"data":[0,0,0,0,0,0,0,0,0,0,0,0,0,0,0,0,0,0,0,0,0,0,0,0,0,0,0,0,0,0,0,0,0,0,0,0,0,0,0,0,0,0,0,0,0,0,0,0,0,0,0,0,0,0,0,0,0,0,1.6766,1.6766,0,1.6744,1.6744,1.6744,1.671,1.6709,1.6708,1.6708,1.6684,1.6684,1.6684,0,0,0,0,0,0,0,0,0,0,0,0,0,1.678,1.678,1.6767,1.6766,1.6766,1.6744,1.6744,1.6744,1.671,1.6709,1.6708,1.6707,1.6684,1.6684,1.6684,0,0,0,0,0,0,0,0,0,0,0,0,0,1.6767,1.678,1.6767,1.6746,1.6744,1.6744,1.6744,1.6743,1.671,1.6709,1.6708,1.6707,1.6684,1.6684,1.6684,1.6702,0,0,1.6684,1.6684,0,0,0,0,0,0,0,0,1.6768,1.6767,1.675,1.6748,1.6746,1.6729,1.674,1.6729,1.671,1.6723,1.6708,1.6707,1.67,1.6698,1.6696,1.67,1.6699,1.6684,1.6684,1.6684,1.6684,0,0,0,0,0,0,0,1.6769,1.6768,1.6758,1.6749,1.6747,1.6738,1.6736,1.6738,1.6717,1.6722,1.6719,1.6717,1.6698,1.6696,1.6695,1.6699,1.6684,1.6684,1.6684,1.6684,1.6718,1.6718,0,0,0,0,0,0,1.6773,1.6769,1.6758,1.6757,1.6755,1.6739,1.6736,1.6735,1.6717,1.6713,1.6718,1.6716,1.6697,1.6695,1.6694,1.6714,1.6684,1.6684,1.6683,1.6717,1.6718,1.6719,0,0,0,0,0,0,1.6773,1.6772,1.6759,1.6762,1.676,1.674,1.6739,1.6735,1.6733,1.6714,1.671,1.672,1.6696,1.6694,1.67,1.6713,1.6684,1.6683,1.6715,1.6717,1.6718,1.6754,0,0,0,0,0,0,1.6774,1.6773,1.6779,1.6762,1.676,1.6766,1.674,1.6735,1.6733,1.673,1.6714,1.6711,1.6695,1.6701,1.67,1.6712,1.6683,1.6714,1.6716,1.6718,1.6751,1.6756,1.676,0,0,0,0,0,1.6774,1.679,1.678,1.6779,1.6767,1.6766,1.6765,1.6747,1.6734,1.674,1.6728,1.6711,1.6712,1.6701,1.6701,1.6713,1.6713,1.6716,1.6718,1.6749,1.6755,1.676,0,0,0,0,0,0,1.6808,1.6787,1.6776,1.6786,1.6778,1.6761,1.6768,1.6754,1.6749,1.6747,1.6724,1.6721,1.673,1.6722,1.6711,1.6729,1.671,1.6712,1.6734,1.674,1.6744,1.6746,1.6683,0,0,0,0,0,1.6817,1.6818,1.6799,1.681,1.6807,1.6788,1.6787,1.6774,1.6765,1.6762,1.675,1.6742,1.674,1.6739,1.6737,1.675,1.6746,1.6758,1.6762,1.6766,1.6768,1.6775,1.678,1.6726,1.6726,1.6726,0,0,1.6834,1.6823,1.6825,1.6817,1.6809,1.6811,1.6786,1.6788,1.679,1.6762,1.6767,1.6758,1.6748,1.6758,1.6761,1.6751,1.6783,1.6769,1.6772,1.6772,1.6778,1.6783,1.6788,1.6727,1.6727,1.6727,0,0,1.6867,1.6859,1.6867,1.6861,1.685,1.6837,1.684,1.6824,1.6817,1.6822,1.6802,1.6803,1.68,1.6794,1.679,1.6822,1.6806,1.6821,1.6845,1.6852,1.6856,1.686,1.6872,1.6876,1.6824,1.6824,1.6824,0,1.6891,1.6893,1.6873,1.6878,1.6875,1.685,1.6859,1.6853,1.6842,1.6841,1.6829,1.6826,1.6817,1.6826,1.6834,1.6831,1.6833,1.6823,1.6857,1.6861,1.6864,1.6875,1.6879,1.6826,1.6825,1.6825,1.6825,0,1.6922,1.6924,1.6932,1.6922,1.692,1.6926,1.6908,1.6909,1.6896,1.6885,1.689,1.6879,1.6874,1.6875,1.6862,1.6882,1.6876,1.6861,1.6841,1.6871,1.6881,1.6885,1.6828,1.6828,1.6827,1.6827,0,0,1.6975,1.6956,1.6959,1.6954,1.6941,1.6942,1.6947,1.6943,1.6943,1.6937,1.6941,1.694,1.6926,1.6922,1.6909,1.6915,1.6942,1.69,1.6899,1.6908,1.6963,1.6974,1.6979,1.6931,1.6932,1.6933,1.6964,0,1.7006,1.7014,1.6998,1.701,1.7011,1.6989,1.6993,1.6986,1.6976,1.6976,1.6964,1.6964,1.6946,1.6944,1.6949,1.6937,1.6952,1.6935,1.6935,1.6935,1.6939,1.6984,1.6996,1.7026,1.6968,1.6968,1.6969,0,1.7043,1.7039,1.7051,1.7038,1.7038,1.7042,1.7037,1.7037,1.7028,1.702,1.7016,1.7001,1.7005,1.6986,1.6993,1.6981,1.698,1.6975,1.6975,1.6975,1.6954,1.6985,1.7035,1.704,1.6975,1.6974,1.6974,0,1.7081,1.7078,1.7086,1.7082,1.7067,1.7071,1.7064,1.7054,1.7053,1.7048,1.7047,1.7043,1.7041,1.7038,1.7022,1.701,1.703,1.701,1.7024,1.7025,1.703,1.703,1.708,1.7029,1.7029,1.7029,1.7029,0,1.7117,1.7126,1.7103,1.7107,1.7116,1.7097,1.7107,1.7098,1.709,1.7092,1.7072,1.7075,1.7054,1.7054,1.7042,1.7049,1.7048,1.7042,1.7039,1.7044,1.7045,1.7043,1.7041,1.703,1.703,1.7029,1.7029,0,1.7161,1.7146,1.7153,1.7137,1.7134,1.7141,1.7128,1.7132,1.7121,1.7124,1.7124,1.7107,1.7107,1.709,1.7086,1.7078,1.7091,1.7083,1.7094,1.7092,1.7107,1.7106,1.7159,1.7165,1.7109,1.711,1.711,0,1.7186,1.7192,1.7177,1.7178,1.7173,1.7173,1.7172,1.7153,1.7153,1.7144,1.7148,1.7147,1.7144,1.7145,1.7132,1.7129,1.7122,1.714,1.7121,1.7126,1.7122,1.7122,1.7123,1.7144,1.7145,1.7146,1.7146,0,1.723,1.7223,1.7221,1.7218,1.7217,1.7213,1.7208,1.7209,1.7189,1.7189,1.7189,1.7187,1.7183,1.7182,1.7177,1.717,1.7155,1.7152,1.7156,1.7161,1.7167,1.7165,1.7105,1.7151,1.7151,1.715,1.715,1.715,1.7265,1.727,1.7261,1.726,1.7255,1.725,1.7253,1.7243,1.7242,1.7238,1.7227,1.7229,1.722,1.7212,1.7207,1.7208,1.7199,1.7203,1.7204,1.7206,1.7209,1.7167,1.7207,1.7207,1.7207,1.7206,1.7206,0,1.7309,1.7302,1.7302,1.7296,1.7296,1.7281,1.7275,1.7276,1.7278,1.7271,1.7269,1.7269,1.7268,1.7255,1.7252,1.7256,1.7249,1.7256,1.7255,1.7254,1.7217,1.7215,1.7262,1.7262,1.7262,1.7262,1.7262,1.7262,1.7332,1.734,1.7331,1.7336,1.7328,1.733,1.7328,1.7324,1.7319,1.732,1.7319,1.731,1.7302,1.7298,1.7296,1.7293,1.7293,1.7302,1.7296,1.7262,1.7257,1.7252,1.7249,1.7302,1.7302,1.7333,1.7333,1.7334]}]]